Location: Bartlett
(35.2045°N, 89.8740°W)
Time: 17:47:49
(UTC+00:00)

Transit 4A - Pass Details

Date: 21 December 2025
Orbit: 867 x 974 km, 66.8° (Epoch: 14 January)

Event Time Altitude Azimuth Distance (km) Brightness Sun altitude
Rises 23:25:30 0° 229° (SW) 3,441 12.6 -7.1°
Reaches altitude 10° 23:28:10 10° 237° (WSW) 2,504 11.8 -7.6°
Maximum altitude 23:33:27 36° 304° (WNW) 1,337 9.1 -8.6°
Drops below altitude 10° 23:38:48 10° 10° (N) 2,529 9.9 -9.6°
Sets 23:41:31 0° 19° (NNE) 3,481 10.5 -10.1°
